| time (UTC) | temp C | wind direction | speed KPH | gust KPH | rain 1hr cm | rain 24hr cm | rain mn cm | humidity % | barometer mb |
| 20260831050558 | 17 | 166 | 1.6 | 3.2 | 0.00 | 0.05 | 0.05 | 99 | 1022.1 |
| 20260831045556 | 17 | 174 | 0.0 | 3.2 | 0.00 | 0.05 | 0.05 | 99 | 1022.3 |
| 20260831044553 | 17 | 170 | 1.6 | 3.2 | 0.00 | 0.05 | 0.05 | 99 | 1022.4 |
| 20260831043549 | 17 | 336 | 0.0 | 3.2 | 0.00 | 0.05 | 0.05 | 99 | 1022.6 |
| 20260831042543 | 17 | 172 | 0.0 | 3.2 | 0.13 | 0.05 | 0.05 | 99 | 1022.4 |
| 20260831041539 | 17 | 129 | 0.0 | 0.0 | 0.13 | 0.03 | 0.03 | 99 | 1022.5 |
| 20260831040539 | 17 | 57 | 0.0 | 1.6 | 0.05 | 0.00 | 0.00 | 99 | 1022.5 |
| 20260831035537 | 17 | 78 | 1.6 | 3.2 | 0.00 | 0.00 | 0.00 | 99 | 1022.4 |
| 20260831034532 | 17 | 92 | 3.2 | 4.8 | 0.00 | 0.00 | 0.00 | 99 | 1022.7 |
| 20260831033529 | 17 | 254 | 3.2 | 3.2 | 0.05 | 0.00 | 0.00 | 99 | 1022.6 |
| 20260831032529 | 17 | 199 | 1.6 | 3.2 | 0.00 | 0.00 | 0.00 | 99 | 1022.8 |
| 20260831031525 | 17 | 204 | 0.0 | 1.6 | 0.00 | 0.00 | 0.00 | 99 | 1022.7 |
| 20260831030523 | 17 | 217 | 0.0 | 1.6 | 0.00 | 0.00 | 0.00 | 99 | 1022.5 |
| 20260831025521 | 17 | 112 | 1.6 | 1.6 | 0.00 | 0.00 | 0.00 | 99 | 1022.5 |
| 20260831024518 | 17 | 173 | 0.0 | 1.6 | 0.00 | 0.00 | 0.00 | 99 | 1022.4 |
| 20260831023515 | 17 | 126 | 0.0 | 3.2 | 0.00 | 0.00 | 0.00 | 99 | 1022.6 |
| 20260831022515 | 17 | 157 | 0.0 | 1.6 | 0.00 | 0.00 | 0.00 | 99 | 1022.4 |
| 20260831021515 | 17 | 161 | 0.0 | 3.2 | 0.00 | 0.00 | 0.00 | 99 | 1022.6 |
| 20260831020512 | 17 | 38 | 0.0 | 1.6 | 0.00 | 0.00 | 0.00 | 99 | 1022.8 |
| 20260831015508 | 17 | 202 | 0.0 | 3.2 | 0.00 | 0.00 | 0.00 | 99 | 1022.8 |
| 20260831014504 | 17 | 202 | 0.0 | 4.8 | 0.00 | 0.00 | 0.00 | 99 | 1022.6 |
| 20260831013501 | 17 | 168 | 0.0 | 1.6 | 0.00 | 0.00 | 0.00 | 99 | 1022.6 |
| 20260831012456 | 17 | 76 | 0.0 | 3.2 | 0.00 | 0.00 | 0.00 | 99 | 1022.6 |
| 20260831011456 | 18 | 173 | 0.0 | 3.2 | 0.00 | 0.00 | 0.00 | 99 | 1022.5 |
| 20260831010452 | 18 | 110 | 0.0 | 1.6 | 0.00 | 0.00 | 0.00 | 99 | 1022.6 |
| 20260831005450 | 18 | 158 | 1.6 | 1.6 | 0.00 | 0.00 | 0.00 | 99 | 1022.1 |
| 20260831004446 | 18 | 142 | 0.0 | 3.2 | 0.00 | 0.00 | 0.00 | 99 | 1022.3 |
| 20260831003443 | 18 | 55 | 0.0 | 3.2 | 0.00 | 0.00 | 0.00 | 99 | 1021.9 |
| 20260831002441 | 18 | 14 | 0.0 | 1.6 | 0.00 | 0.00 | 0.00 | 99 | 1021.4 |
| 20260831001438 | 18 | 188 | 0.0 | 3.2 | 0.00 | 0.00 | 0.00 | 99 | 1021.7 |
| 20260831000436 | 18 | 135 | 0.0 | 1.6 | 0.00 | 0.00 | 0.00 | 99 | 1021.3 |
| 20260830235436 | 18 | 350 | 0.0 | 3.2 | 0.00 | 0.00 | 0.00 | 99 | 1021.6 |
| 20260830234432 | 18 | 150 | 0.0 | 3.2 | 0.00 | 0.00 | 0.00 | 98 | 1021.2 |
| 20260830233429 | 18 | 178 | 0.0 | 3.2 | 0.00 | 0.00 | 0.00 | 98 | 1021.4 |
| 20260830232426 | 18 | 126 | 0.0 | 1.6 | 0.00 | 0.00 | 0.00 | 98 | 1021.4 |
| 20260830231423 | 18 | 152 | 0.0 | 1.6 | 0.00 | 0.00 | 0.00 | 97 | 1021.6 |
| 20260830230418 | 18 | 174 | 1.6 | 3.2 | 0.00 | 0.00 | 0.00 | 97 | 1021.4 |
| 20260830225413 | 19 | 337 | 1.6 | 3.2 | 0.00 | 0.00 | 0.00 | 96 | 1021.8 |
| 20260830224412 | 19 | 133 | 0.0 | 1.6 | 0.00 | 0.00 | 0.00 | 96 | 1021.7 |
| 20260830223411 | 19 | 156 | 0.0 | 3.2 | 0.00 | 0.00 | 0.00 | 96 | 1021.6 |
| 20260830222406 | 19 | 150 | 3.2 | 3.2 | 0.00 | 0.00 | 0.00 | 96 | 1021.3 |
| 20260830221403 | 18 | 64 | 1.6 | 4.8 | 0.00 | 0.00 | 0.00 | 95 | 1021.5 |
| 20260830220358 | 19 | 83 | 6.4 | 6.4 | 0.00 | 0.00 | 0.00 | 95 | 1021.6 |
| 20260830215356 | 19 | 335 | 1.6 | 4.8 | 0.00 | 0.00 | 0.00 | 95 | 1021.5 |
| 20260830214352 | 20 | 69 | 4.8 | 6.4 | 0.00 | 0.00 | 0.00 | 94 | 1021.5 |
| 20260830213348 | 20 | 26 | 3.2 | 3.2 | 0.00 | 0.00 | 0.00 | 94 | 1021.7 |
| 20260830212345 | 20 | 359 | 3.2 | 6.4 | 0.00 | 0.00 | 0.00 | 93 | 1021.7 |
| 20260830211344 | 20 | 346 | 6.4 | 6.4 | 0.00 | 0.00 | 0.00 | 92 | 1021.5 |
| 20260830210339 | 20 | 353 | 6.4 | 8.0 | 0.00 | 0.00 | 0.00 | 89 | 1021.4 |
| 20260830205336 | 20 | 343 | 0.0 | 3.2 | 0.00 | 0.00 | 0.00 | 88 | 1021.3 |
| 20260830204336 | 21 | 113 | 0.0 | 0.0 | 0.00 | 0.00 | 0.00 | 86 | 1021.4 |
| 20260830203334 | 21 | 37 | 0.0 | 3.2 | 0.00 | 0.00 | 0.00 | 84 | 1021.2 |
| 20260830202329 | 21 | 191 | 4.8 | 6.4 | 0.00 | 0.00 | 0.00 | 84 | 1021.2 |
| 20260830201324 | 21 | 218 | 3.2 | 9.7 | 0.00 | 0.00 | 0.00 | 84 | 1021.0 |
| 20260830200319 | 21 | 221 | 3.2 | 9.7 | 0.00 | 0.00 | 0.00 | 84 | 1021.1 |
| 20260830195314 | 21 | 238 | 3.2 | 6.4 | 0.00 | 0.00 | 0.00 | 83 | 1021.1 |
| 20260830194312 | 21 | 180 | 1.6 | 6.4 | 0.00 | 0.00 | 0.00 | 82 | 1021.4 |
| 20260830193307 | 22 | 201 | 3.2 | 4.8 | 0.00 | 0.00 | 0.00 | 81 | 1021.3 |
| 20260830192305 | 22 | 9 | 0.0 | 6.4 | 0.00 | 0.00 | 0.00 | 79 | 1021.1 |
| 20260830191258 | 22 | 223 | 6.4 | 8.0 | 0.00 | 0.00 | 0.00 | 78 | 1021.6 |
| 20260830190255 | 22 | 220 | 3.2 | 6.4 | 0.00 | 0.00 | 0.00 | 79 | 1021.5 |
| 20260830185255 | 23 | 171 | 3.2 | 6.4 | 0.00 | 0.00 | 0.00 | 77 | 1021.5 |
| 20260830184253 | 23 | 211 | 4.8 | 6.4 | 0.00 | 0.00 | 0.00 | 75 | 1021.6 |
| 20260830183249 | 23 | 236 | 3.2 | 9.7 | 0.00 | 0.00 | 0.00 | 76 | 1021.8 |
| 20260830182246 | 23 | 190 | 6.4 | 9.7 | 0.00 | 0.00 | 0.00 | 76 | 1021.9 |
| 20260830181243 | 22 | 187 | 4.8 | 8.0 | 0.00 | 0.00 | 0.00 | 77 | 1021.8 |
| 20260830180243 | 22 | 180 | 4.8 | 8.0 | 0.00 | 0.00 | 0.00 | 78 | 1022.0 |
| 20260830175238 | 22 | 203 | 4.8 | 9.7 | 0.00 | 0.00 | 0.00 | 78 | 1022.1 |
| 20260830174234 | 22 | 200 | 3.2 | 9.7 | 0.00 | 0.00 | 0.00 | 79 | 1022.1 |
| 20260830173229 | 22 | 183 | 0.0 | 6.4 | 0.00 | 0.00 | 0.00 | 81 | 1022.0 |
| 20260830172228 | 22 | 218 | 6.4 | 8.0 | 0.00 | 0.00 | 0.00 | 80 | 1022.3 |
| 20260830171224 | 22 | 220 | 4.8 | 9.7 | 0.00 | 0.00 | 0.00 | 79 | 1022.3 |
| 20260830170223 | 22 | 214 | 3.2 | 6.4 | 0.00 | 0.00 | 0.00 | 79 | 1022.0 |
| 20260830165219 | 22 | 192 | 8.0 | 9.7 | 0.00 | 0.00 | 0.00 | 79 | 1022.4 |
| 20260830164216 | 21 | 215 | 1.6 | 11.3 | 0.00 | 0.00 | 0.00 | 85 | 1022.3 |
| 20260830163214 | 21 | 209 | 11.3 | 11.3 | 0.00 | 0.00 | 0.00 | 81 | 1022.4 |
| 20260830162211 | 22 | 48 | 1.6 | 9.7 | 0.00 | 0.00 | 0.00 | 81 | 1022.4 |
| 20260830161206 | 21 | 213 | 11.3 | 12.9 | 0.00 | 0.00 | 0.00 | 81 | 1022.7 |
| 20260830160202 | 22 | 217 | 6.4 | 16.1 | 0.00 | 0.00 | 0.00 | 79 | 1022.6 |
| 20260830155200 | 22 | 77 | 4.8 | 9.7 | 0.00 | 0.00 | 0.00 | 78 | 1022.9 |
| 20260830154157 | 21 | 196 | 3.2 | 11.3 | 0.00 | 0.00 | 0.00 | 82 | 1023.0 |
| 20260830153154 | 22 | 198 | 11.3 | 14.5 | 0.00 | 0.00 | 0.00 | 80 | 1022.9 |
| 20260830152152 | 21 | 171 | 3.2 | 9.7 | 0.00 | 0.00 | 0.00 | 81 | 1022.9 |
| 20260830151152 | 20 | 221 | 6.4 | 14.5 | 0.00 | 0.00 | 0.00 | 84 | 1023.0 |
| 20260830150148 | 20 | 210 | 4.8 | 14.5 | 0.00 | 0.00 | 0.00 | 85 | 1023.0 |
| 20260830145148 | 20 | 196 | 8.0 | 9.7 | 0.00 | 0.00 | 0.00 | 84 | 1022.9 |
| 20260830144145 | 20 | 202 | 6.4 | 11.3 | 0.00 | 0.00 | 0.00 | 84 | 1022.9 |
| 20260830143145 | 20 | 197 | 3.2 | 8.0 | 0.00 | 0.00 | 0.00 | 84 | 1022.6 |
| 20260830142141 | 20 | 167 | 1.6 | 9.7 | 0.00 | 0.00 | 0.00 | 85 | 1022.7 |
| 20260830141137 | 20 | 197 | 4.8 | 11.3 | 0.00 | 0.00 | 0.00 | 84 | 1022.5 |
| 20260830140133 | 20 | 206 | 12.9 | 17.7 | 0.00 | 0.00 | 0.00 | 83 | 1022.6 |
| 20260830135128 | 19 | 190 | 1.6 | 12.9 | 0.00 | 0.00 | 0.00 | 83 | 1023.0 |
| 20260830134125 | 19 | 201 | 17.7 | 17.7 | 0.00 | 0.00 | 0.00 | 84 | 1023.1 |
| 20260830133121 | 18 | 206 | 8.0 | 11.3 | 0.00 | 0.00 | 0.00 | 87 | 1023.1 |
| 20260830132119 | 18 | 197 | 6.4 | 11.3 | 0.00 | 0.00 | 0.00 | 86 | 1023.0 |
| 20260830131119 | 18 | 188 | 1.6 | 9.7 | 0.00 | 0.00 | 0.00 | 87 | 1023.2 |
| 20260830130114 | 18 | 201 | 8.0 | 11.3 | 0.00 | 0.00 | 0.00 | 87 | 1023.1 |
| 20260830125114 | 18 | 186 | 3.2 | 11.3 | 0.00 | 0.00 | 0.00 | 87 | 1023.0 |
| 20260830124113 | 18 | 191 | 4.8 | 9.7 | 0.00 | 0.00 | 0.00 | 87 | 1023.3 |
| 20260830123111 | 18 | 178 | 3.2 | 9.7 | 0.00 | 0.00 | 0.00 | 86 | 1023.2 |
| 20260830122110 | 17 | 192 | 4.8 | 12.9 | 0.00 | 0.00 | 0.00 | 87 | 1023.2 |
| 20260830121105 | 17 | 194 | 6.4 | 8.0 | 0.00 | 0.00 | 0.00 | 87 | 1023.4 |
| 20260830115059 | 16 | 195 | 4.8 | 6.4 | 0.00 | 0.00 | 0.00 | 87 | 1023.3 |
| 20260830114055 | 16 | 201 | 4.8 | 8.0 | 0.00 | 0.00 | 0.00 | 86 | 1023.3 |
| 20260830113051 | 17 | 196 | 4.8 | 6.4 | 0.00 | 0.00 | 0.00 | 83 | 1023.6 |
| 20260830112049 | 16 | 214 | 4.8 | 8.0 | 0.00 | 0.00 | 0.00 | 85 | 1023.5 |
| 20260830111047 | 16 | 202 | 6.4 | 6.4 | 0.00 | 0.00 | 0.00 | 85 | 1023.4 |
| 20260830110042 | 15 | 191 | 4.8 | 8.0 | 0.00 | 0.00 | 0.00 | 85 | 1023.6 |
| 20260830105038 | 15 | 190 | 4.8 | 9.7 | 0.00 | 0.00 | 0.00 | 84 | 1023.6 |
| 20260830104037 | 15 | 203 | 8.0 | 8.0 | 0.00 | 0.00 | 0.00 | 84 | 1023.5 |
| 20260830103037 | 15 | 190 | 3.2 | 6.4 | 0.00 | 0.00 | 0.00 | 83 | 1023.5 |
| 20260830102032 | 15 | 164 | 3.2 | 4.8 | 0.00 | 0.00 | 0.00 | 82 | 1023.4 |
| 20260830101027 | 15 | 138 | 1.6 | 3.2 | 0.00 | 0.00 | 0.00 | 82 | 1023.8 |
| 20260830100026 | 15 | 116 | 1.6 | 3.2 | 0.00 | 0.00 | 0.00 | 81 | 1023.7 |
| 20260830095023 | 15 | 140 | 1.6 | 4.8 | 0.00 | 0.00 | 0.00 | 81 | 1023.6 |
| 20260830094020 | 15 | 123 | 3.2 | 3.2 | 0.00 | 0.00 | 0.00 | 83 | 1023.7 |
| 20260830093019 | 15 | 101 | 1.6 | 4.8 | 0.00 | 0.00 | 0.00 | 81 | 1023.7 |
| 20260830092015 | 15 | 131 | 3.2 | 4.8 | 0.00 | 0.00 | 0.00 | 81 | 1023.7 |
| 20260830091014 | 15 | 121 | 3.2 | 3.2 | 0.00 | 0.00 | 0.00 | 81 | 1023.7 |
| 20260830090011 | 15 | 135 | 1.6 | 3.2 | 0.00 | 0.00 | 0.00 | 81 | 1023.7 |
| 20260830085007 | 15 | 86 | 0.0 | 3.2 | 0.00 | 0.00 | 0.00 | 80 | 1024.0 |
| 20260830084003 | 15 | 184 | 1.6 | 4.8 | 0.00 | 0.00 | 0.00 | 79 | 1024.2 |
| 20260830082958 | 15 | 187 | 0.0 | 3.2 | 0.00 | 0.00 | 0.00 | 80 | 1023.9 |
| 20260830081954 | 15 | 100 | 0.0 | 3.2 | 0.00 | 0.00 | 0.00 | 81 | 1024.0 |
| 20260830080949 | 15 | 209 | 1.6 | 4.8 | 0.00 | 0.00 | 0.00 | 83 | 1024.0 |
| 20260830075944 | 15 | 188 | 0.0 | 3.2 | 0.00 | 0.00 | 0.00 | 81 | 1024.1 |
| 20260830074941 | 15 | 138 | 0.0 | 3.2 | 0.00 | 0.00 | 0.00 | 82 | 1024.2 |
| 20260830073938 | 15 | 154 | 3.2 | 4.8 | 0.00 | 0.00 | 0.00 | 83 | 1024.2 |
| 20260830072934 | 15 | 255 | 3.2 | 4.8 | 0.00 | 0.00 | 0.00 | 81 | 1024.2 |
| 20260830071930 | 15 | 155 | 3.2 | 3.2 | 0.00 | 0.00 | 0.00 | 80 | 1024.5 |
| 20260830070929 | 15 | 49 | 0.0 | 3.2 | 0.00 | 0.00 | 0.00 | 82 | 1024.5 |
| 20260830065929 | 15 | 100 | 0.0 | 3.2 | 0.00 | 0.00 | 0.00 | 81 | 1024.6 |
| 20260830064927 | 15 | 186 | 3.2 | 3.2 | 0.00 | 0.00 | 0.00 | 81 | 1024.4 |
| 20260830063923 | 15 | 197 | 3.2 | 4.8 | 0.00 | 0.00 | 0.00 | 79 | 1024.1 |
| 20260830062922 | 15 | 178 | 3.2 | 4.8 | 0.00 | 0.00 | 0.00 | 79 | 1024.0 |
| 20260830061917 | 15 | 98 | 3.2 | 3.2 | 0.00 | 0.00 | 0.00 | 80 | 1024.1 |
| 20260830060914 | 15 | 199 | 0.0 | 3.2 | 0.00 | 0.00 | 0.00 | 83 | 1024.4 |
| 20260830055911 | 15 | 213 | 3.2 | 4.8 | 0.00 | 0.00 | 0.00 | 84 | 1024.5 |
| 20260830054908 | 14 | 174 | 0.0 | 3.2 | 0.00 | 0.00 | 0.00 | 86 | 1024.5 |
| 20260830053905 | 15 | 166 | 0.0 | 3.2 | 0.00 | 0.00 | 0.00 | 83 | 1024.4 |
| 20260830052859 | 15 | 120 | 0.0 | 6.4 | 0.00 | 0.00 | 0.00 | 82 | 1024.2 |
| 20260830051856 | 13 | 118 | 0.0 | 3.2 | 0.00 | 0.00 | 0.00 | 88 | 1024.4 |